Duchifat 3
1 44854U 19089C   25166.75654745  .00034552  00000-0  66240-3 0  9995
2 44854  36.9438 315.9115 0004288 356.3922   3.6804 15.47084950303906
TO-108
1 44881U 19093C   25166.82381967  .00000859  00000-0  10534-3 0  9999
2 44881  97.7924 242.3430 0013144 205.5805 154.4761 14.85613787297007
FloripaSat 1
1 44885U 19093G   25166.82468444  .00004159  00000-0  35202-3 0  9995
2 44885  97.8157 254.4388 0010447 180.8582 179.2624 14.98536241297686
RS-44
1 44909U 19096E   25166.41732193  .00000022  00000-0  53211-4 0  9991
2 44909  82.5213 223.4001 0216262 282.0052  75.6885 12.79741183255430
UPMSat 2
1 46276U 20061E   25166.17087962  .00054763  00000-0  46482-3 0  9996
2 46276  97.2428 240.7429 0002155 162.0574 198.0765 15.69492032266343
SALSAT
1 46495U 20068K   25166.39854554  .00005130  00000-0  22220-3 0  9997
2 46495  97.8610 144.6957 0012626 135.9775 224.2468 15.22817118259416
CubeSX-Sirius-HSE
1 47951U 21022V   25157.62701764  .07883385  25648-5  89537-3 0  9993
2 47951  97.4004  72.1904 0010275 223.9924 136.0557 16.36879307233400
CubeSX-HSE
1 47952U 21022W   25157.69972699  .06655353  25454-5  93288-3 0  9992
2 47952  97.3980  72.5414 0010307 219.3637 140.6911 16.34906352233436
GRBAlpha
1 47959U 21022AD  25160.45426279  .07940347  25506-5  90589-3 0  9995
2 47959  97.3899  75.6235 0011032 227.2558 132.7812 16.36806138232695
TUBIN
1 48900U 21059X   25166.81447321  .00040308  00000-0  47827-3 0  9994
2 48900  97.6755 336.5493 0003754 193.5126 166.6031 15.61096360221017
LEDSAT
1 49069U 21073D   25166.20367410  .00054123  00000-0  62866-3 0  9990
2 49069  97.3887 247.9781 0008690  65.3215 294.8946 15.61549876212318
CUTE
1 49263U 21088D   25166.17968990  .00018029  00000-0  35553-3 0  9996
2 49263  97.4503 242.5964 0007620 210.8317 149.2486 15.47222811205298
TeikyoSat 4
1 49396U 21102B   25166.52445211  .00002432  00000-0  16317-3 0  9993
2 49396  97.4088 204.7384 0014026 111.1824 249.0904 15.07665307197441
Z-Sat
1 49399U 21102E   25166.82958998  .00003422  00000-0  18872-3 0  9998
2 49399  97.3789 208.1668 0019833  83.7585 276.5906 15.14464611197926
KOSEN 1
1 49402U 21102H   25166.85760911  .00005808  00000-0  26878-3 0  9997
2 49402  97.3693 211.6562 0017209  61.1953 299.1008 15.20378462198246
HO-113
1 50466U 21131B   25166.87205851  .00000511  00000-0  17330-3 0  9999
2 50466  98.5105 256.1939 0005406 113.2149 246.9609 14.40822155182359
Foresail-1
1 52766U 22057AL  25166.84900805  .00644005  20785-3  88460-3 0  9999
2 52766  97.6053 319.8326 0010392 249.9641 110.0522 16.06091041170906
SNUGLITE 2
1 52899U 22065F   25166.30268652  .00001008  00000-0  20480-3 0  9996
2 52899  98.1695 308.2202 0008965  95.5966 264.6258 14.63226724157326
UmKA 1 (RS40S)
1 57172U 23091G   25166.87980154  .00004573  00000-0  24508-3 0  9990
2 57172  97.5571 222.2291 0013037 317.2915  42.7303 15.15426808108435
CubeBel-2 (EU11S)
1 57175U 23091K   25166.82720927  .00008142  00000-0  38671-3 0  9990
2 57175  97.5569 223.3607 0010845 326.3384  33.7160 15.19447164108504
VERONIKA
1 58261U 23174F   25166.82629845  .00129129  00000-0  96588-3 0  9996
2 58261  97.4104 253.3834 0000842 336.0266  24.0958 15.72290655 89666
ENSO
1 58470U 23185J   25166.87466201  .00047253  00000-0  66383-3 0  9997
2 58470  97.3726 242.1976 0006870  70.7195 289.4803 15.56546796 86014
EIRSAT-1
1 58472U 23185L   25166.83458619  .00087871  00000-0  76293-3 0  9990
2 58472  97.3676 244.1692 0003663  84.8902 275.2778 15.68816685 86144
SONATE-2
1 59112U 24043Q   25166.61902735  .00011967  00000-0  34324-3 0  9997
2 59112  97.5151 297.9183 0012274  94.7211 265.5435 15.35960542 71263
MO-122
1 60209U 24125G   25166.56705200  .00013781  00000-0  38863-3 0  9997
2 60209  97.2784  18.1184 0020300 114.7026 245.6334 15.36313623 52877
GRBBeta
1 60237U 24128C   25165.85984966  .00004586  00000-0  34752-3 0  9996
2 60237  61.9925  61.1492 0052382  58.7677 301.8532 15.02682204 50990
Curium One
1 60242U 24128H   25166.41911019  .00006055  00000-0  42424-3 0  9992
2 60242  61.9822  57.4063 0052356  55.0162 305.5829 15.05200431 51110
ROBUSTA-3A
1 60243U 24128J   25166.42359376  .00006137  00000-0  43575-3 0  9995
2 60243  61.9890  58.2384 0051151  52.6751 307.8985 15.04732466 51104
CatSat
1 60246U 24125J   25166.57618201  .00007448  00000-0  24777-3 0  9995
2 60246  97.2582  17.2737 0043995  73.8511 286.7566 15.30490583 50907
HYPERVIEW-1G (RS66S)
1 61772U 24199AP  25166.86655192  .00016186  00000-0  46612-3 0  9994
2 61772  97.3522  35.7118 0014271 162.9350 197.2377 15.35731071 77923
AO-123
1 61781U 24199AY  25166.86513074  .00005386  00000-0  19651-3 0  9999
2 61781  97.3536  34.5310 0016108 169.3020 190.8565 15.28444242 77847
ZIMSAT 2
1 61783U 24199BA  25166.83239956  .00029096  00000-0  70128-3 0  9992
2 61783  97.3498  36.3381 0014353 159.8803 200.3013 15.41093578 81114
HADES-R (SO-124)
1 62690U 25009CK  25166.49863611  .00024930  00000-0  87086-3 0  9997
2 62690  97.4085 247.2816 0003853  94.4733 265.6947 15.29554639 23055
HYDRA-T
1 62692U 25009CM  25166.15605675  .00027204  00000-0  94266-3 0  9991
2 62692  97.4090 246.9756 0003495  92.7296 267.4345 15.29800870 23007
JINJUSat 1B
1 63210U 25052A   25166.45175331  .00008497  00000-0  38869-3 0  9990
2 63210  97.4408  60.5005 0002755 323.9723  36.1327 15.20773942 14142
NUSHSAT 1
1 63211U 25052B   25166.44578933  .00009350  00000-0  42436-3 0  9999
2 63211  97.4400  60.4974 0002916 332.7998  27.3084 15.21014684 14144
TEVEL2-4
1 63213U 25052D   25166.26313947  .00009039  00000-0  41401-3 0  9998
2 63213  97.4314  60.1849 0002785   2.3235 357.8013 15.20707927 14114
TEVEL2-5
1 63214U 25052E   25166.19799419  .00009091  00000-0  41661-3 0  9999
2 63214  97.4317  60.1195 0002788   2.4358 357.6891 15.20687474 14107
TEVEL2-6
1 63215U 25052F   25166.26608163  .00008636  00000-0  39642-3 0  9993
2 63215  97.4317  60.1825 0002867   2.3174 357.8074 15.20647821 14119
TEVEL2-1
1 63217U 25052H   25166.21215059  .00008354  00000-0  38601-3 0  9999
2 63217  97.4291  60.0728 0003531  14.8802 345.2536 15.20429258 14103
TEVEL2-2
1 63218U 25052J   25166.27826535  .00007963  00000-0  36810-3 0  9998
2 63218  97.4290  60.1381 0003590  15.7102 344.4244 15.20430568 14111
TEVEL2-3
1 63219U 25052K   25166.21259191  .00008312  00000-0  38412-3 0  9990
2 63219  97.4292  60.0728 0003575  15.2026 344.9316 15.20423976 14100
TEVEL2-8
1 63237U 25052AD  25165.68972111  .00010543  00000-0  50328-3 0  9993
2 63237  97.4360  59.4723 0008299  12.2146 347.9288 15.19208807 14014
TEVEL2-9
1 63238U 25052AE  25166.21920585  .00007858  00000-0  37661-3 0  9992
2 63238  97.4362  59.9897 0008277  10.1298 350.0102 15.19158089 14099
TEVEL2-7
1 63239U 25052AF  25166.48476322  .00007244  00000-0  34780-3 0  9995
2 63239  97.4357  60.2447 0008257   9.5209 350.6181 15.19127876 14130
HYDRA-W
1 63490U 25052BL  25166.52309928  .00018730  00000-0  78445-3 0  9994
2 63490  97.4304  60.5906 0011450   3.1014 357.0291 15.23531143 14164
HADES-ICM (SO-125)
1 63492U 25052BN  25166.21124049  .00016938  00000-0  71921-3 0  9991
2 63492  97.4306  60.2494 0011900   7.3997 352.7413 15.23080960 14112
